Wind_Speed
9 9 8 8 7 6 6 6 5 5 5 5 5 6 6 6 6 5 5 5 5 5 5 6 7 7 7 7 8 8 9 10 10 10 10 11 11 11 12 12 12 12 12
9 10 9 8 7 7 6 6 6 6 6 6 6 6 6 7 7 6 6 6 6 6 6 7 7 8 8 9 9 9 10 11 11 11 12 12 12 12 13 13 13 13 13
9 9 9 8 8 7 7 7 7 7 7 7 8 8 7 7 7 7 7 7 6 7 7 7 8 9 9 9 10 11 12 12 12 12 13 13 13 14 14 14 15 14 14
8 8 8 8 8 8 7 7 7 7 7 8 8 9 8 7 7 7 8 7 6 6 7 7 8 9 10 10 11 11 11 11 12 12 13 14 14 14 14 14 14 14 15
7 7 8 8 9 8 7 7 8 8 9 9 9 9 9 8 7 7 7 8 7 7 8 8 9 10 11 11 12 11 12 12 12 13 14 14 15 15 15 15 15 15 15
8 7 7 8 9 9 8 8 9 9 9 9 10 10 9 9 9 8 8 8 8 9 9 10 10 11 11 12 12 13 13 13 13 14 15 15 16 17 16 16 16 15 15
8 8 8 8 9 9 9 9 9 9 9 10 10 11 10 10 10 10 10 10 11 11 11 12 12 12 13 13 14 14 14 14 15 16 17 17 17 17 17 17 17 16 16
10 9 9 9 9 10 10 10 10 10 10 10 11 11 11 11 11 11 11 12 12 13 13 13 14 14 15 15 16 16 16 17 17 18 18 18 18 18 18 18 18 18 17
12 11 11 10 11 11 12 12 12 12 12 12 12 12 12 13 13 13 13 13 14 15 15 15 16 16 16 16 17 17 18 19 19 19 19 19 19 19 19 20 20 19 18
14 13 13 13 13 13 13 13 13 14 14 14 14 14 14 14 14 15 15 15 15 16 16 17 17 18 18 18 18 19 19 20 20 20 21 21 21 20 20 20 21 21 20
15 15 14 15 15 15 15 14 14 15 15 15 15 15 15 16 16 16 17 17 17 17 18 18 19 20 19 20 20 20 21 21 21 21 21 22 22 22 22 22 22 23 22
16 16 16 16 16 16 16 15 16 16 16 16 16 16 16 16 17 18 19 19 18 19 19 20 20 21 21 22 22 22 22 22 23 23 23 23 23 23 24 24 24 24 24
18 18 18 19 17 16 17 17 17 18 18 18 18 18 18 19 19 20 20 20 20 21 21 21 22 23 23 23 23 23 24 24 25 25 24 24 25 25 25 26 26 26 25
20 20 20 20 20 20 19 19 19 20 20 21 20 20 20 20 21 22 22 22 23 23 22 23 23 24 25 25 25 25 26 26 26 25 25 26 26 26 27 27 26 27 27
24 23 22 22 22 22 22 22 22 22 22 22 22 22 22 22 23 23 24 24 24 24 24 24 25 26 26 26 26 26 27 26 26 27 27 28 28 28 28 28 28 28 28
26 24 24 23 24 24 24 24 24 23 23 24 24 24 24 24 25 25 25 25 25 26 26 27 27 27 27 27 27 27 28 28 28 28 29 29 29 30 30 30 30 29 29
27 27 26 25 25 25 26 25 25 25 25 25 25 25 26 26 26 26 26 26 26 27 28 28 28 27 27 28 28 29 30 30 30 31 31 31 31 30 30 30 30 30 29
29 29 28 28 27 27 28 27 26 26 26 26 26 26 26 26 26 27 28 29 29 29 29 29 29 29 29 29 29 30 31 31 32 32 32 32 31 31 31 30 30 30 30
30 29 29 28 28 28 28 28 27 27 27 27 27 28 28 29 29 29 30 30 30 31 31 31 31 32 32 31 31 32 32 32 32 32 32 32 32 31 31 31 31 30 31
30 30 30 29 29 29 28 28 28 29 29 29 29 30 30 30 31 31 31 31 32 32 32 32 32 33 33 33 33 33 34 33 33 33 33 33 33 32 32 32 31 31 31
31 31 31 30 30 30 30 30 30 30 30 31 32 32 32 33 33 33 33 33 34 34 34 34 34 35 35 35 35 35 35 35 34 34 33 34 33 33 33 33 33 33 33
33 33 33 32 32 32 33 33 33 33 33 34 34 34 34 34 35 35 35 36 36 35 36 36 36 36 37 37 37 37 36 35 35 35 35 34 34 34 34 34 34 35 34
34 34 33 34 34 35 34 34 34 35 35 36 36 36 36 36 36 37 37 37 37 37 37 38 38 38 38 38 38 37 37 37 36 36 35 35 35 34 34 34 35 35 35
34 34 34 34 35 35 35 35 35 36 36 37 37 38 38 38 38 38 38 38 38 38 38 39 39 39 39 39 38 38 38 38 37 36 36 36 36 35 35 35 34 35 34
34 35 35 36 36 36 35 35 36 36 36 37 38 38 39 39 39 39 39 39 39 39 39 39 39 39 39 39 39 39 39 39 38 37 37 36 36 36 35 35 34 34 33
35 35 35 36 36 36 35 36 36 37 37 38 38 39 39 39 39 39 39 39 39 39 40 40 40 39 39 39 39 39 39 39 38 37 37 36 36 36 35 35 34 33 32
Wind_Direction
25 23 23 23 20 18 17 15 12 8 360 350 347 358 359 358 354 344 339 335 332 330 329 330 333 335 336 332 329 325 321 318 318 318 320 323 325 323 320 320 317 316 312
22 19 18 18 19 14 7 4 8 13 9 358 351 353 351 350 350 350 344 341 337 331 330 331 334 332 331 328 326 322 320 317 317 320 320 320 321 322 320 318 315 313 311
12 12 13 15 15 14 12 9 7 5 359 354 352 348 346 345 348 350 345 343 341 338 333 333 335 333 330 329 327 324 321 319 318 320 323 323 322 321 319 316 312 311 310
1 4 6 6 9 6 2 4 4 359 355 349 347 349 345 341 342 343 347 344 342 333 328 330 332 330 328 328 326 324 322 321 320 322 325 327 326 326 326 320 315 313 313
346 355 355 356 358 356 353 352 351 350 349 347 345 344 345 343 344 343 340 335 332 336 334 332 329 327 326 325 324 323 322 320 320 321 321 322 323 323 322 320 316 313 312
334 346 349 347 349 350 349 349 347 343 340 338 338 338 337 339 341 340 338 334 334 334 331 329 327 328 327 326 325 322 319 317 316 316 316 316 317 318 317 316 313 311 310
321 326 331 336 339 342 344 344 343 338 334 332 331 331 330 330 329 329 329 329 328 328 325 324 324 324 323 322 320 320 317 315 313 314 315 313 313 314 314 313 313 311 310
306 310 318 322 326 330 333 334 332 328 325 322 322 322 320 320 321 321 321 321 319 319 320 319 320 318 316 315 315 314 314 313 313 313 312 311 311 311 311 310 309 308 306
301 302 305 310 313 315 321 322 321 320 319 317 315 314 314 313 313 314 313 312 313 313 313 314 314 315 314 313 312 311 311 311 312 311 310 309 308 308 308 308 307 305 304
296 299 303 306 304 304 308 311 314 315 313 313 313 310 308 308 310 310 310 307 307 308 308 309 309 309 309 309 309 308 308 309 309 309 308 307 306 305 306 306 306 305 302
293 293 295 299 298 300 303 306 308 309 309 309 309 308 307 306 305 306 307 307 307 305 306 306 305 306 307 309 308 307 306 306 306 307 305 303 302 301 302 303 303 302 301
285 287 290 292 295 296 298 302 303 304 304 305 306 306 305 306 305 305 305 305 305 304 305 305 305 306 305 306 307 306 306 305 304 303 302 301 300 298 297 298 298 299 298
280 283 286 287 291 294 295 298 299 302 301 301 302 302 302 302 303 302 303 304 304 303 302 302 302 303 303 304 303 303 303 304 304 302 300 300 301 300 297 297 297 298 298
279 281 284 286 288 290 292 293 295 298 299 300 299 298 298 299 299 299 301 302 302 302 302 301 300 301 301 301 301 301 301 303 302 301 301 301 302 303 302 300 298 297 297
278 280 281 282 283 285 288 291 291 292 294 296 297 297 298 298 299 299 299 300 299 299 300 299 299 299 299 300 299 300 300 300 300 300 299 300 301 301 300 300 299 298 297
277 279 280 282 281 282 285 288 292 292 293 293 293 295 296 297 298 298 297 298 297 297 298 299 299 298 298 299 299 300 299 299 299 299 299 300 300 300 299 298 297 297 297
277 278 279 280 279 280 283 286 288 291 292 291 291 294 295 296 297 297 298 299 299 298 298 299 300 300 300 300 299 299 300 300 300 300 300 299 299 299 298 297 296 297 297
276 277 277 278 279 280 281 284 285 288 289 290 291 292 293 295 295 296 297 298 298 297 298 299 299 299 300 300 300 300 300 299 300 300 299 299 299 299 298 296 295 296 297
275 276 277 278 278 278 279 282 282 284 286 287 289 291 292 293 293 294 295 296 296 297 297 298 297 297 298 298 299 300 299 299 299 299 298 298 299 299 298 296 296 296 296
274 275 275 277 277 277 279 281 281 282 284 286 288 289 290 291 292 292 291 292 294 296 296 295 296 296 297 297 297 298 298 298 297 297 297 297 297 297 296 296 296 296 296
272 272 272 274 276 277 278 279 280 281 283 285 287 289 289 291 292 291 291 292 293 294 294 294 294 295 296 296 296 296 295 296 296 296 296 296 296 296 296 296 296 296 296
272 271 270 271 274 276 278 280 280 281 282 284 286 287 289 290 291 291 291 291 292 292 293 293 292 293 293 294 294 295 294 294 294 295 295 295 295 295 296 296 297 297 296
272 271 270 272 275 277 279 280 280 281 281 282 284 285 287 288 288 288 289 290 291 291 292 292 291 291 291 292 292 293 294 294 293 293 294 294 295 295 296 296 296 297 297
272 272 273 274 276 278 279 280 281 281 282 283 283 284 286 287 287 287 288 290 290 290 291 291 291 290 290 290 291 291 293 293 293 292 292 293 294 294 295 296 297 297 297
271 272 273 275 276 276 277 279 280 282 282 283 283 284 284 285 286 287 288 288 290 290 290 290 290 290 289 289 290 290 291 291 292 291 290 290 292 293 294 294 296 296 295
271 271 273 274 275 275 277 279 280 281 282 283 284 284 285 286 287 288 288 289 289 289 289 289 289 290 289 289 290 291 291 291 290 290 290 290 290 291 292 292 292 292 293
Height
5913 5912 5911 5910 5910 5909 5908 5908 5908 5908 5907 5907 5907 5906 5906 5906 5905 5905 5905 5904 5904 5904 5904 5903 5903 5902 5901 5901 5900 5899 5898 5897 5896 5895 5894 5892 5891 5890 5888 5887 5885 5884 5883
5914 5913 5912 5911 5911 5910 5910 5910 5909 5909 5908 5908 5908 5907 5907 5906 5906 5905 5904 5904 5904 5903 5903 5903 5902 5901 5900 5899 5898 5898 5896 5895 5894 5893 5891 5890 5890 5887 5886 5884 5883 5882 5880
5915 5914 5913 5912 5912 5911 5911 5910 5910 5909 5909 5908 5908 5907 5906 5906 5906 5905 5904 5903 5903 5902 5902 5902 5901 5900 5899 5898 5897 5896 5895 5893 5891 5890 5889 5887 5886 5885 5884 5882 5880 5879 5877
5916 5915 5914 5913 5913 5912 5912 5911 5910 5910 5909 5908 5908 5907 5906 5906 5905 5905 5904 5903 5903 5902 5901 5901 5900 5899 5898 5897 5895 5894 5892 5891 5889 5888 5886 5885 5883 5882 5881 5879 5877 5876 5875
5916 5916 5915 5914 5913 5912 5912 5911 5911 5910 5909 5908 5907 5907 5906 5905 5905 5904 5904 5903 5902 5901 5900 5899 5898 5897 5896 5895 5893 5892 5890 5889 5887 5886 5884 5882 5881 5879 5878 5877 5875 5873 5872
5915 5915 5915 5914 5914 5913 5912 5911 5911 5910 5909 5908 5907 5906 5906 5905 5904 5904 5903 5902 5901 5900 5899 5898 5897 5896 5894 5893 5891 5890 5888 5886 5885 5883 5881 5880 5879 5877 5875 5874 5872 5870 5869
5917 5915 5914 5914 5913 5913 5912 5911 5911 5910 5909 5908 5907 5906 5905 5904 5904 5903 5902 5901 5900 5899 5898 5896 5895 5893 5892 5890 5889 5887 5885 5884 5882 5880 5879 5877 5875 5874 5872 5870 5869 5867 5866
5916 5915 5914 5913 5912 5912 5912 5911 5910 5909 5908 5907 5906 5905 5904 5903 5902 5901 5900 5899 5898 5897 5896 5894 5893 5891 5889 5887 5886 5884 5882 5881 5879 5877 5875 5874 5872 5870 5868 5867 5865 5863 5862
5914 5913 5912 5911 5911 5911 5910 5910 5909 5908 5907 5906 5904 5903 5902 5901 5900 5899 5898 5897 5895 5894 5893 5891 5890 5888 5886 5884 5882 5881 5879 5877 5875 5874 5872 5870 5868 5866 5864 5863 5861 5859 5857
5912 5911 5910 5909 5909 5908 5908 5908 5907 5906 5905 5904 5902 5901 5900 5899 5897 5896 5895 5894 5893 5891 5889 5888 5886 5884 5882 5880 5879 5877 5875 5873 5871 5869 5868 5866 5864 5862 5860 5858 5856 5854 5852
5910 5909 5908 5907 5907 5906 5905 5905 5904 5904 5902 5901 5900 5898 5897 5896 5895 5893 5892 5890 5889 5888 5886 5884 5882 5880 5878 5876 5874 5872 5870 5868 5867 5865 5863 5861 5859 5857 5855 5853 5851 5849 5847
5907 5906 5906 5905 5904 5903 5902 5902 5901 5900 5899 5898 5897 5895 5894 5892 5891 5889 5888 5887 5885 5884 5882 5880 5878 5876 5874 5872 5870 5868 5866 5864 5862 5860 5857 5855 5853 5851 5849 5847 5845 5843 5841
5903 5903 5902 5901 5900 5900 5899 5898 5897 5897 5896 5894 5893 5892 5890 5888 5887 5886 5884 5882 5881 5879 5877 5875 5873 5871 5869 5867 5865 5863 5860 5858 5856 5854 5851 5849 5847 5845 5842 5841 5839 5837 5835
5899 5899 5898 5898 5897 5896 5895 5894 5894 5892 5891 5890 5889 5887 5886 5884 5883 5881 5879 5877 5876 5874 5872 5870 5868 5866 5864 5862 5859 5857 5855 5852 5850 5848 5846 5843 5841 5838 5836 5834 5832 5830 5828
5894 5894 5894 5893 5892 5891 5891 5890 5889 5888 5886 5885 5884 5883 5881 5879 5878 5876 5874 5872 5870 5869 5867 5865 5863 5860 5858 5856 5854 5851 5849 5846 5844 5842 5839 5837 5834 5832 5830 5827 5825 5823 5821
5888 5887 5887 5887 5886 5886 5885 5885 5884 5882 5881 5880 5879 5877 5876 5874 5872 5870 5869 5867 5865 5862 5861 5858 5856 5854 5851 5849 5847 5845 5842 5840 5838 5835 5832 5830 5828 5825 5823 5820 5818 5815 5813
5882 5881 5881 5880 5880 5880 5879 5878 5877 5876 5875 5874 5873 5871 5870 5868 5866 5864 5863 5861 5858 5856 5854 5852 5849 5847 5845 5843 5840 5838 5836 5833 5831 5828 5825 5822 5820 5817 5815 5813 5810 5808 5805
5874 5874 5874 5874 5873 5872 5872 5871 5871 5870 5869 5868 5866 5865 5864 5862 5860 5858 5856 5854 5852 5849 5847 5845 5843 5840 5838 5836 5833 5831 5828 5826 5823 5820 5817 5814 5812 5809 5807 5805 5802 5800 5798
5867 5867 5866 5866 5865 5865 5864 5864 5864 5863 5862 5861 5860 5858 5857 5855 5853 5851 5849 5847 5845 5842 5840 5838 5835 5833 5831 5828 5826 5823 5820 5818 5815 5812 5809 5806 5804 5802 5799 5796 5794 5792 5790
5859 5859 5858 5858 5858 5857 5857 5857 5856 5855 5854 5853 5852 5850 5849 5847 5845 5844 5841 5839 5837 5834 5832 5830 5827 5825 5823 5820 5817 5815 5812 5810 5807 5804 5801 5799 5796 5794 5790 5788 5786 5783 5781
5850 5850 5850 5850 5850 5850 5849 5849 5848 5847 5846 5845 5844 5842 5840 5838 5837 5835 5832 5830 5828 5826 5824 5821 5819 5817 5814 5811 5808 5806 5803 5801 5798 5796 5793 5790 5788 5785 5782 5779 5777 5774 5772
5841 5841 5841 5841 5842 5841 5841 5840 5839 5838 5837 5836 5834 5833 5831 5829 5827 5825 5823 5821 5819 5817 5815 5812 5810 5807 5804 5802 5799 5796 5794 5791 5789 5786 5784 5781 5779 5776 5773 5770 5768 5765 5762
5833 5832 5831 5832 5832 5832 5832 5831 5830 5829 5827 5826 5825 5823 5821 5819 5817 5815 5813 5811 5809 5807 5805 5802 5800 5797 5795 5792 5789 5786 5784 5781 5779 5776 5774 5772 5769 5766 5764 5761 5758 5755 5752
5824 5824 5823 5823 5823 5823 5822 5821 5820 5819 5817 5816 5814 5813 5811 5809 5807 5805 5803 5801 5799 5797 5794 5792 5790 5787 5784 5782 5779 5776 5773 5771 5769 5766 5764 5761 5759 5756 5754 5751 5748 5745 5742
5815 5815 5814 5814 5814 5813 5812 5811 5810 5809 5807 5805 5803 5802 5800 5798 5796 5794 5792 5790 5788 5786 5784 5781 5778 5776 5773 5771 5768 5766 5763 5760 5758 5756 5753 5751 5749 5746 5743 5741 5738 5735 5733
5806 5805 5805 5804 5803 5802 5801 5801 5800 5798 5796 5795 5793 5791 5789 5787 5785 5783 5781 5779 5777 5775 5772 5770 5767 5765 5762 5760 5757 5754 5752 5749 5747 5744 5742 5740 5738 5735 5733 5731 5728 5726 5724